Погода в Саконнакхоне

Таиланд     17°09′56″N   104°09′01″E
темп.,
°C
ветер,
м/с
пор.,
м/с
влажн.,
%
обл.,
%
осадки,
мм/ч
давл.,
гПа
погр.,
м
19 января, ср
ср1901:00+15вюв38801 0.0 1016206
04:00+13в23881 0.0 101645
07:00+13вюв24880 0.0 101788
10:00+23в45500 0.0 1018715
13:00+29в45363 0.0 10131651
16:00+29вюв44346 0.0 10102128
19:00+22в6115730 0.0 1012278
22:00+18вюв513720 0.0 1014344
20 января, чт
чт2001:00+16вюв411790 0.0 1013265
04:00+15вюв37881 0.0 1013162
07:00+15в37891 0.0 1014197
10:00+25в46494 0.0 1015757
13:00+30вюв32333 0.0 10101941
16:00+31ююз02304 0.0 10082409
19:00+25в114281 0.0 100913
22:00+22юв5106468 0.1 1013345
21 января, пт
пт2101:00+18вюв497818 0.2 1013257
04:00+18в1383100 0.0 1012134
07:00+18вюв128097 0.1 1014101
10:00+18вюв1384100 1.0 1016166
13:00+20св237897 1.6 1013274
16:00+25всв33563 0.0 1010767
19:00+20св22745 0.0 101126
22:00+19в23780 0.0 101252
22 января, сб
сб2201:00+18вюв22855 0.1 101116
04:00+17вюв228944 0.0 101019
07:00+18с118785 0.0 101216
10:00+24в235945 0.1 1013508
13:00+31ссз253883 0.1 10082208
16:00+29ссз234497 0.0 1006295
19:00+26ссв225469 0.1 100728
22:00+23ссз116328 0.0 100911
23 января, вс
вс2301:00+21в11704 0.0 100811
04:00+20вюв22755 0.0 100816
07:00+20вюв11770 0.0 101011
10:00+29ююв22440 0.0 1011701
13:00+34зсз36285 0.0 10073192
16:00+34зюз562423 0.0 10053118
19:00+29з23347 0.0 100640
22:00+26св2241100 0.0 100818